Weather in Vasil'yevo

Russia / Saint-Petersburg and Leningrad Oblast     60°51′43″N   29°49′05″E
temp.,
°C
wind,
m/s
gust,
m/s
humid.,
%
clouds,
%
prec.,
mm/h
press.,
hPa
HPBL,
m
25 may, wed
wed2500:00+4se27820 0.0 1016141
03:00+3sse23860 0.0 101758
06:00+5sse23750 0.0 1017132
09:00+11se225152 0.0 1016669
12:00+17sse113699 0.0 10151248
15:00+18e1233100 0.0 10131718
18:00+14ese45509 0.0 1013459
21:00+10ese366414 0.0 1012183
26 may, thu
thu2600:00+6se256893 0.0 101196
03:00+5ese267274 0.0 1010110
06:00+7ese3970100 0.0 1008238
09:00+12ese4753100 0.0 1006615
12:00+13ese5752100 0.0 1004811
15:00+13ese4652100 0.0 1003946
18:00+12se2466100 0.2 1001679
21:00+8e2493100 1.1 1000141
27 may, fri
fri2700:00+8se2496100 0.5 999131
03:00+8ssw2697100 0.6 998274
06:00+8sw2696100 0.0 997272
09:00+10ssw2390100 0.0 996383
12:00+14sw356898 0.7 9951177
15:00+14ssw5668100 2.0 9941235
18:00+11wsw477697 0.6 994943
21:00+9sw247999 0.6 994133
28 may, sat
sat2800:00+6s119453 0.0 99312
03:00+5ssw11945 0.0 99310
06:00+7n118582 0.0 99367
09:00+12n116098 0.0 994697
12:00+16n125088 0.6 9941559
15:00+14se115794 1.6 995950
18:00+14wsw245591 1.0 9971212
21:00+10w247771 1.1 998108
29 may, sun
sun2900:00+6wnw119435 0.0 99913
03:00+5sw11955 0.0 100014
06:00+7sw13825 0.0 100197
09:00+13wsw23572 0.0 1001894
12:00+16wnw324999 0.1 10021557
15:00+14w357374 1.1 1003782
18:00+14wnw2474100 1.9 1004935
21:00+11w2689100 3.1 1005155